Location: Newark
(34.9500°N, 139.9667°E)
Time: 01:30:08
(UTC+00:00)

deb Explorer IX - Pass Details

Date: 14 December 2019
Orbit: 548 x 1101 km, 38.8° (Epoch: 23 January)

Event Time Altitude Azimuth Distance (km) Brightness Sun altitude
Rises 08:10:33 0° 281° (W) 3,303 ? -8.4°
Reaches altitude 10° 08:12:55 10° 285° (WNW) 2,456 ? -8.9°
Maximum altitude 08:18:48 63° 6° (N) 1,040 ? -10.0°
Enters shadow 08:25:00 13° 86° (E) 2,619 ? -11.2°
